Retour au catalogue

STARLINK-37957

ActifCommunicationsSSO
NORAD 69685·PAYLOAD·🇺🇸 United States

Lancé Jun 25, 2026 depuis Vandenberg Space Force Base

Loading…

Prochains Passages (prochaines 24 heures)

TLE

FraisSource: CelesTrak SupGP

Époque: Sep 15, 2026, 04:17 UTC

1 69685C 26145J   26258.17895833 -.00058015  00000+0 -18009-2 0  2587
2 69685  97.2847 104.9045 0001834  94.0699  19.5457 15.33468632    12

Suivez STARLINK-37957 en temps réel avec AllMySat

Download on the App Store